Regional Weather Roundup
Issued by NWS Austin/San Antonio, TX

Home | Current Version | Previous Version | Text Only | Print | Product List | Glossary On
Versions: 1 2 3 4 5 6 7 8 9 10 11 12 13 14 15 16 17 18 19 20 21 22 23 24 25 26 27 28 29 30 31 32 33 34 35 36 37 38 39 40 41 42 43 44 45 46 47 48 49 50
000
ASUS44 KEWX 271211
RWREWX
SOUTH TEXAS REGIONAL WEATHER ROUNDUP
NATIONAL WEATHER SERVICE AUSTIN/SAN ANTONIO TX
600 AM CST MON JAN 27 2020

NOTE: "FAIR" INDICATED FEW OR NO CLOUDS BELOW 12,000 FEET WITH NO
SIGNIFICANT WEATHER AND/OR OBSTRUCTIONS TO VISIBILITY.

* - THESE STATIONS ARE NOT NWS OR FAA STATIONS...AND ARE NOT SUBJECT
    TO NWS AND FAA QUALITY CONTROL.

TXZ171-172-183>190-271300-
TEXAS HILL COUNTRY AND EDWARDS PLATEAU

CITY           SKY/WX    TMP DP  RH WIND       PRES   REMARKS
JUNCTION       CLEAR     37  34  89 CALM      30.01R
6HR MIN TEMP:  37; 6HR MAX TEMP:  45;

*LLANO         CLEAR     39  39 100 CALM      30.04S
BURNET         CLEAR     44  41  89 N3        30.03R
6HR MIN TEMP:  43; 6HR MAX TEMP:  52;

*HORSESHOE BAY NOT AVBL
*LAGO VISTA    CLEAR     49  48  96 E3        30.01R
6HR MIN TEMP:  48; 6HR MAX TEMP:  52;

*KERRVILLE     CLEAR     38  36  91 CALM      30.01S
6HR MIN TEMP:  38; 6HR MAX TEMP:  45;

*FREDERICKSBRG CLEAR     39  37  92 CALM      30.01S
6HR MIN TEMP:  38; 6HR MAX TEMP:  44;

*ROCKSPRINGS   CLEAR     50  41  71 SE8       30.03S WCI  47
*BOERNE        CLEAR     39  39 100 CALM      30.02R
*CASTROVILLE   CLEAR     46  46  97 CALM      30.02S
HONDO          CLEAR     44  42  93 NE6       29.99F WCI  41
6HR MIN TEMP:  44; 6HR MAX TEMP:  53;

*UVALDE        CLEAR     50  46  88 NE8       30.00S WCI  46
6HR MIN TEMP:  49; 6HR MAX TEMP:  55;

DEL RIO        CLEAR     50  42  74 E5        29.95S WCI  48
6HR MIN TEMP:  49; 6HR MAX TEMP:  57;

*LAUGHLIN AFB  CLEAR     46  41  84 E6        29.96R WCI  43
6HR MIN TEMP:  45; 6HR MAX TEMP:  50;

*SPOFFORD      NOT AVBL
*EAGLE PASS    CLEAR     48  41  76 E7        29.96S WCI  45
CARRIZO SPRGS  CLEAR     45  37  76 CALM      29.97R
*FAITH RANCH   CLEAR     52  46  82 E7        29.96S
$$

TXZ173-191>194-202-209-217>225-228-271300-
CENTRAL AND SOUTH CENTRAL TEXAS

CITY           SKY/WX    TMP DP  RH WIND       PRES   REMARKS
GEORGETOWN     CLEAR     40  38  93 CALM      30.03R
6HR MIN TEMP:  40; 6HR MAX TEMP:  49;

*TAYLOR        CLEAR     40  39  98 NW3       30.02R FOG
6HR MIN TEMP:  38; 6HR MAX TEMP:  48;

AUSTIN/BERGSTM CLEAR     43  42  97 CALM      30.00S
6HR MIN TEMP:  38; 6HR MAX TEMP:  48;

AUSTIN/MABRY   CLEAR     48  44  86 CALM      30.01S
6HR MIN TEMP:  48; 6HR MAX TEMP:  55;

*PFLUGERVILLE  PTCLDY    46  46 100 NW6       30.02R FOG     WCI  43
SAN MARCOS     CLEAR     45  44  97 N8        30.02R WCI  41
6HR MIN TEMP:  43; 6HR MAX TEMP:  50;

NEW BRAUNFELS  CLEAR     46  43  89 N6        29.99R WCI  43
6HR MIN TEMP:  46; 6HR MAX TEMP:  55;

*RANDOLPH AFB  NOT AVBL
*SEGUIN        CLEAR     44  44  99 N6        30.04R WCI  41
6HR MIN TEMP:  43; 6HR MAX TEMP:  52;

SAN ANTONIO    CLEAR     49  45  86 NW3       30.00S
6HR MIN TEMP:  48; 6HR MAX TEMP:  58;

STINSON FIELD  CLEAR     46  45  96 CALM      29.99S
6HR MIN TEMP:  45; 6HR MAX TEMP:  58;

*KELLY FIELD   NOT AVBL
*PLEASANTON    CLEAR     44  41  91 CALM      30.00S
6HR MIN TEMP:  44; 6HR MAX TEMP:  51;

*KENEDY        CLEAR     44  43  95 CALM      30.01S
6HR MIN TEMP:  44; 6HR MAX TEMP:  53;

*LA GRANGE     CLEAR     44  44 100 CALM      29.98R
6HR MIN TEMP:  44; 6HR MAX TEMP:  52;

*GIDDINGS        N/A     44  43  95 NE3       30.00S FOG
6HR MIN TEMP:  44; 6HR MAX TEMP:  55;

*GONZALES      CLEAR     47  47 100 N5        30.00R FOG     WCI  45
6HR MIN TEMP:  46; 6HR MAX TEMP:  56;

$$

TXZ163>164-176>182-195>201-210>213-226-227-235-271300-
SOUTHEAST TEXAS

CITY           SKY/WX    TMP DP  RH WIND       PRES   REMARKS
COLLEGE STN    FOG       50  49  96 NE6       30.01R VSB 1/4 WCI  48
6HR MIN TEMP:  49; 6HR MAX TEMP:  53;

*BRYAN         FOG       49  49 100 CALM      30.03R VSB<1/4
6HR MIN TEMP:  46; 6HR MAX TEMP:  53;

*CALDWELL      FOG       45 N/A N/A NW10      30.02R VSB<1/4 WCI  39
6HR MIN TEMP:  42; 6HR MAX TEMP:  52;

*CROCKETT      NOT AVBL
*BRENHAM       FOG       52  52 100 E3        30.01R VSB 1/4
6HR MIN TEMP:  44; 6HR MAX TEMP:  53;

HUNTSVILLE     CLOUDY    53  51  93 NE6       30.01S FOG
6HR MIN TEMP:  48; 6HR MAX TEMP:  53;

CONROE         CLOUDY    52  51  97 E3        30.02R FOG
6HR MIN TEMP:  47; 6HR MAX TEMP:  54;

HOUSTON BUSH   FOG       53  52  96 CALM      30.01R VSB 1/2
6HR MIN TEMP:  50; 6HR MAX TEMP:  56;

HOUSTON HOBBY  CLOUDY    57  53  86 NE5       30.00R FOG
6HR MIN TEMP:  56; 6HR MAX TEMP:  59;

*HOUSTON SW AP CLOUDY    56  55  97 SE3       30.01R
6HR MIN TEMP:  51; 6HR MAX TEMP:  57;

PEARLAND       CLOUDY    58  53  84 CALM      30.02R
6HR MIN TEMP:  57; 6HR MAX TEMP:  60;

HOUSTON HOOKS  FOG       53  51  93 CALM      30.01R VSB 3/4
6HR MIN TEMP:  48; 6HR MAX TEMP:  55;

ELLINGTON FLD  NOT AVBL
SUGAR LAND     CLOUDY    58  56  93 SE3       30.00R
6HR MIN TEMP:  51; 6HR MAX TEMP:  59;

*HOUSTON EXEC  CLOUDY    55  55 100 E3        30.02R FOG
*CLEVELAND MUN FOG       52  52 100 CALM      30.02R VSB<1/4
6HR MIN TEMP:  52; 6HR MAX TEMP:  54;

*WHARTON       FOG       56  55  95 E5        30.01R VSB 1
6HR MIN TEMP:  49; 6HR MAX TEMP:  56;

*COLUMBUS      HAZE      49  43  80 CALM      30.01R VSB 1
6HR MIN TEMP:  43; 6HR MAX TEMP:  50;

*EAGLE LAKE    FOG       54  53  98 CALM      30.00  VSB 3/4
6HR MIN TEMP:  48; 6HR MAX TEMP:  54;

$$

TXZ214>216-236>238-271300-
THE UPPER TEXAS COAST

CITY           SKY/WX    TMP DP  RH WIND       PRES   REMARKS
*ORANGE        CLOUDY    56  52  88 N3        30.03R
6HR MIN TEMP:  56; 6HR MAX TEMP:  57;

PORT ARTHUR    CLOUDY    55  51  86 N12       30.00S
6HR MIN TEMP:  53; 6HR MAX TEMP:  57;

GALVESTON      CLOUDY    58  54  86 N6        30.01R
6HR MIN TEMP:  57; 6HR MAX TEMP:  60;

ANGLETON       CLOUDY    58  55  90 NE5       30.00R
6HR MIN TEMP:  54; 6HR MAX TEMP:  59;

*BAY CITY      CLOUDY    59  59 100 CALM      29.99S
PALACIOS       CLOUDY    58  57  97 E5        29.98S FOG
6HR MIN TEMP:  54; 6HR MAX TEMP:  59;

$$

TXZ229>234-239>247-271300-
TEXAS COASTAL BEND AND RIO GRANDE PLAINS

CITY           SKY/WX    TMP DP  RH WIND       PRES   REMARKS
VICTORIA       FOG       53  52  96 E5        29.99R VSB 1/4
6HR MIN TEMP:  47; 6HR MAX TEMP:  56;

*BEEVILLE      NOT AVBL
ROCKPORT       CLEAR     53  49  86 CALM      29.98R FOG
6HR MIN TEMP:  50; 6HR MAX TEMP:  57;

*PORT ARANSAS  FOG       59  59  98 CALM      30.00R VSB 1/4
6HR MIN TEMP:  55; 6HR MAX TEMP:  60;

*PORT LAVACA   NOT AVBL
*INGLESIDE     FOG       54  53  98 CALM      29.98R VSB 1/4
CORPUS CHRISTI FOG       52  52 100 CALM      29.98S VSB 1/2
6HR MIN TEMP:  49; 6HR MAX TEMP:  53;

CORPUS NAS     FOG       54  54 100 CALM      29.99R VSB 1/16
6HR MIN TEMP:  52; 6HR MAX TEMP:  57;

*ROBSTOWN      FOG       51  50  96 CALM      29.99S VSB 1/4
6HR MIN TEMP:  51; 6HR MAX TEMP:  56;

ALICE          CLEAR     49  48  97 CALM      29.97S FOG
6HR MIN TEMP:  49; 6HR MAX TEMP:  55;

KINGSVILLE NAS FOG       49  47  93 CALM      29.98S VSB 1/4
6HR MIN TEMP:  49; 6HR MAX TEMP:  56;

COTULLA        CLEAR     52  49  89 E6        29.98S
6HR MIN TEMP:  52; 6HR MAX TEMP:  58;

LAREDO         CLEAR     56  55  97 SE8       29.97R
6HR MIN TEMP:  55; 6HR MAX TEMP:  61;


USA.gov is the U.S. government's official web portal to all federal, state and local government web resources and services.